WESTFORD NEEDLES, 2365

Orbit data source: Space-Track

WESTFORD NEEDLES, 2365 is space debris in LEO originally from a launch on Thu, 09 May 1963 UTC launched from the Air Force Western Test Range (AFWTR). Debris objects in space refer to the collection of defunct objects orbiting the Earth. Examples of debris include non-operational satellites, rocket bodies, and fragments generated from explosions, collisions, or faulty payload assembly.

Loading next visibility...
Identifier
2365, 1963-014Q
Orbit
LEO
Country
Flag of USUS
Related business
Manufacturer
Unknown
Mission
Spacecraft
Bus & Motor
Unknown
Mass
Unknown
Launch date (UTC)
1963-05-09 (63 years ago)
Launch vehicle
Unknown
Launch site
Air Force Western Test Range (AFWTR)
Object type
Payload
Rocket body
Debris
Shape & HBR
Unknown shape, 0.3 m
Radar Cross Section
Medium (>0.1 m² and <1 m²)

Expand to show TLE details & history
Last TLE update: 2 weeks ago

TLE from 2 weeks ago
0 WESTFORD NEEDLES
1 02365U 63014Q   26151.87105367  .00000981  00000-0  44259+0 0  9993
2 02365  87.3166  99.8506 0152033 237.0013 121.6152  8.67673447995605
Epoch: 2026-05-31T20:54Z
TLE epoch observation values (Epoch: 2026-05-31T20:54:19.037Z)
Latitude
0.00002°
Longitude
-103.09524°
Altitude
3,709.23 km
Speed
6.261 km/s
True Right ascension
06h 39m 24s
True Declination
0° 00' 00"
Sunlit
Object was in daylight at epoch
Visualization orbit readout
Latitude
Unknown
Longitude
Unknown
Altitude
Unknown
Speed
Unknown
Apparent Right ascension
Unknown
Apparent Declination
Unknown
Sunlit
N/A
Visualization observer readout
Local Sidereal Time
13:21:34
Azimuth
Unknown
Elevation
Unknown
Doppler factor
Unknown
Orbital elements
Apogee altitude
3,775.523 km
Perigee altitude
3,471.409 km
Semi-major axis
10,001.603 km
Eccentricity
0.0152
Inclination
87.3166°
RAAN
99.8506°
Arg. of periapsis
237.0013°
True anomaly
123.08401°
Mean anomaly
121.6152°
Eccentric anomaly
122.35108°
Mean motion
2.1699 °/min
Orbital period
165.91 mins
BSTAR
0.44259
Loading maneuver chart data...
Computing Atmospheric mass density...

Documentation

Showing up to 5 results
|